Cosmos 371 Rocket - Orbit

View from above orbital plane
View from above orbital plane
View from above satellite
View from above satellite

Ground track
Ground track

The orbit data is extracted from the following two-line orbital elements,

1 04579U 70083B   13140.18561391  .00000437  00000-0  98928-4 0  6155
2 04579 074.0056 058.4730 0009741 072.1208 035.5026 14.59235019257483
Epoch (UTC): 20 May 2013 04:27:17
Eccentricity: 0.0009741
inclination: 74.0056°
perigee height: 689 km
apogee height: 702 km
right ascension of ascending node: 58.4730°
argument of perigee: 72.1208°
revolutions per day: 14.59235019
mean anomaly at epoch: 35.5026°
orbit number at epoch: 25748

The dashed part of the orbit path shows where the satellite is in the earth's shadow,  

Developed and maintained by Chris Peat, Heavens-Above GmbH. Please read the updated FAQ before sending e-mail. Imprint. DLR